This is the latest recevied weather packets stored in our database for station/object 4S6DRJ-13. If no packets are shown the sender has not sent any weather packets the latest 10 day(s).
| Time | Temp. | Humidity | Pressure | Rain* | Wind** | Luminosity | Snow |
|---|---|---|---|---|---|---|---|
| 1788396490 | 26.67° C | 89% | 1009.4 hPa | 1.78 mm | 0.45 m/s, 293° | 24 W/m² | - |
| 1788396429 | 26.67° C | 89% | 1009.3 hPa | 1.78 mm | 0.45 m/s, 226° | 21 W/m² | - |
| 1788396368 | 26.67° C | 89% | 1009.4 hPa | 1.78 mm | 0 m/s | 18 W/m² | - |
| 1788396308 | 26.67° C | 89% | 1009.4 hPa | 1.52 mm | 0.45 m/s, 260° | 16 W/m² | - |
| 1788396246 | 26.67° C | 89% | 1009.6 hPa | 1.52 mm | 0 m/s | 14 W/m² | - |
| 1788396186 | 26.67° C | 89% | 1009.4 hPa | 1.52 mm | 0.45 m/s, 243° | 12 W/m² | - |
| 1788396124 | 26.67° C | 89% | 1009.5 hPa | 1.27 mm | 0 m/s | 12 W/m² | - |
| 1788396063 | 26.67° C | 89% | 1009.3 hPa | 1.27 mm | 0 m/s | 11 W/m² | - |
| 1788396002 | 26.67° C | 89% | 1009.2 hPa | 1.27 mm | 0.45 m/s, 231° | 10 W/m² | - |
| 1788395941 | 26.67° C | 88% | 1009.5 hPa | 1.27 mm | 0 m/s | 8 W/m² | - |
| 1788395881 | 26.67° C | 88% | 1009.3 hPa | 0.76 mm | 0 m/s | 6 W/m² | - |
| 1788395819 | 26.67° C | 88% | 1009.2 hPa | 0.25 mm | 0 m/s | 4 W/m² | - |
| 1788395758 | 26.67° C | 88% | 1009.3 hPa | 0 mm | 0.45 m/s, 129° | 4 W/m² | - |
| 1788395698 | 27.22° C | 88% | 1009.2 hPa | 0 mm | 0.89 m/s, 102° | 4 W/m² | - |
| 1788395636 | 27.22° C | 88% | 1009.2 hPa | 0 mm | 0.89 m/s, 103° | 4 W/m² | - |
| 1788395576 | 27.22° C | 87% | 1009.3 hPa | 0 mm | 0.45 m/s, 119° | 3 W/m² | - |
| 1788395515 | 27.22° C | 87% | 1009.4 hPa | 0 mm | 0.89 m/s, 182° | 3 W/m² | - |
| 1788395454 | 27.22° C | 87% | 1009.2 hPa | 0 mm | 0.45 m/s, 132° | 2 W/m² | - |
| 1788395393 | 27.22° C | 86% | 1009.3 hPa | 0 mm | 0.45 m/s, 133° | 2 W/m² | - |
| 1788395332 | 27.22° C | 86% | 1009.4 hPa | 0 mm | 0.89 m/s, 117° | 1 W/m² | - |
| 1788395271 | 27.78° C | 86% | 1009.3 hPa | 0 mm | 0.89 m/s, 118° | 1 W/m² | - |
| 1788395210 | 27.78° C | 86% | 1009.4 hPa | 0 mm | 1.34 m/s, 159° | 1 W/m² | - |
| 1788395149 | 27.78° C | 86% | 1009.4 hPa | 0 mm | 0.45 m/s, 150° | 1 W/m² | - |
| 1788395088 | 27.78° C | 86% | 1009.2 hPa | 0 mm | 0.45 m/s, 177° | 1 W/m² | - |
| 1788395027 | 27.78° C | 86% | 1009.2 hPa | 0 mm | 0.89 m/s, 160° | 1 W/m² | - |
* Rain latest hour (hover to see other rain measurements)
** Current wind speed in m/s (hover to see current wind gust speed)